Regional Weather Roundup
Issued by NWS

Home | Current Version | Previous Version | Text Only | Print | Product List | Glossary On
Versions: 1 2 3 4 5 6 7 8 9 10 11 12 13 14 15 16 17 18 19 20 21 22 23 24 25 26 27
000
ASUS44 KBMX 291710
RWRAL

ALABAMA REGIONAL WEATHER ROUNDUP
NATIONAL WEATHER SERVICE BIRMINGHAM AL
1200 PM CDT THU SEP 29 2016

NOTE: "FAIR" INDICATES FEW OR NO CLOUDS BELOW 12,000 FEET
WITH NO SIGNIFICANT WEATHER AND/OR OBSTRUCTIONS TO VISIBILITY.

THE REMARK "TC" DENOTES TEMPERATURE IN DEGREES CELSIUS.

ALZ001>011-014-016>018-020-291800-
NORTH ALABAMA

CITY           SKY/WX    TMP DP  RH WIND       PRES   REMARKS
MUSCLE SHOALS  SUNNY     70  46  42 NW9       30.11F
HUNTSVILLE     MOSUNNY   71  46  40 NW15      30.09F
DECATUR        SUNNY     69  47  45 NW12      30.10F
HALEYVILLE     FAIR      67  47  48 NW13G20   30.13F
GADSDEN        SUNNY     72  45  37 N8        30.07F
$$

ALZ012-013-022-023-030>036-040>044-291800-
WEST CENTRAL ALABAMA

CITY           SKY/WX    TMP DP  RH WIND       PRES   REMARKS
TUSCALOOSA     SUNNY     72  44  36 NW12G23   30.10F
$$

ALZ015-024>027-033>036-040>044-291800-
CENTRAL ALABAMA

CITY           SKY/WX    TMP DP  RH WIND       PRES   REMARKS
BIRMINGHAM     SUNNY     72  43  35 N10       30.10F
MONTGOMERY     SUNNY     79  52  38 NW8       30.03F
SHELBY CO ARPT SUNNY     72  44  36 NW10      30.09S
MAXWELL AFB    SUNNY     78  51  38 NW8       30.03F
GREENVILLE     FAIR      81  54  39 N12       30.04F
$$

ALZ019-021-028-029-037-038-045>048-291800-
EAST CENTRAL ALABAMA

CITY           SKY/WX    TMP DP  RH WIND       PRES   REMARKS
ANNISTON       SUNNY     73  43  33 N8        30.06F
ALEXANDER CITY SUNNY     77  60  55 W7G18     30.05S
AUBURN         SUNNY     78  53  41 W8        30.03F
$$

ALZ051>064-291800-
SOUTHWEST ALABAMA

CITY           SKY/WX    TMP DP  RH WIND       PRES   REMARKS
MOBILE         MOSUNNY   79  62  56 NW7       30.07S
BROOKLEY FIELD SUNNY     82  63  52 N10       30.06F
EVERGREEN      SUNNY     79  60  52 N7        30.06S
$$

ALZ049-050-065>069-291800-
SOUTHEAST ALABAMA

CITY           SKY/WX    TMP DP  RH WIND       PRES   REMARKS
DOTHAN         SUNNY     86  58  38 W9        30.04F
OZARK          SUNNY     84  61  45 SW7       30.00F
TROY           SUNNY     80  57  45 VRB5      30.03F
EUFAULA        NOT AVBL
$$




USA.gov is the U.S. government's official web portal to all federal, state and local government web resources and services.